User: anonymous   Login
Location: Cogollal
(10.0582°N, 67.8466°W)
Time: 11:49:47
(UTC+00:00)
Language:

Cosmos 1943 - Orbit

View from above orbital plane
View from above orbital plane
View from above satellite
View from above satellite

Ground track
Ground track

The orbit data is extracted from the following two-line orbital elements,

1 19119U 88039A   24167.65259576 -.00000117  00000-0 -35563-4 0  9991
2 19119  71.0021 134.3799 0009801 139.4261  32.9816 14.15456170863363
Epoch (UTC): 15 June 2024 15:39:44
Eccentricity: 0.0009801
inclination: 71.0021°
perigee height: 833 km
apogee height: 848 km
right ascension of ascending node: 134.3799°
argument of perigee: 139.4261°
revolutions per day: 14.15456170
mean anomaly at epoch: 32.9816°
orbit number at epoch: 86336

The dashed part of the orbit path shows where the satellite is in the earth's shadow,  

DLR